When you browse on this site, cookies collect data to enhance your experience and personalize the content and advertising you see.
Visit our Privacy Policy to learn more. By continuing to use the site, you agree to this use of cookies and data.
  • In Lithuania
  • List of Countries
  • For 7 days
  • Water Temperature
  • Weather Map
  • Weather Widgets
  • user-avatar
    Login

    Hourly Weather Salta

    Today, 24 August, Saturday

    Time Temperature Precipitation Wind Pressure Humidity
    00:00 +10°C° 0 mm 0 mps 651 mmHg 60%
    01:00 +10°C° 0 mm 0 mps 651 mmHg 60%
    02:00 +9°C° 0 mm 0 mps 651 mmHg 61%
    03:00 +10°C° 0 mm 1 mps 650 mmHg 61%
    04:00 +10°C° 0 mm 1 mps 650 mmHg 62%
    05:00 +10°C° 0 mm 1 mps 650 mmHg 62%
    06:00 +11°C° 0 mm 1 mps 651 mmHg 58%
    07:00 +12°C° 0 mm 1 mps 651 mmHg 53%
    08:00 +14°C° 0 mm 1 mps 652 mmHg 48%
    09:00 +18°C° 0 mm 1 mps 653 mmHg 42%
    10:00 +20°C° 0 mm 1 mps 654 mmHg 36%
    11:00 +23°C° 0 mm 2 mps 654 mmHg 29%
    12:00 +24°C° 0 mm 2 mps 654 mmHg 28%
    13:00 +25°C° 0 mm 2 mps 653 mmHg 27%
    14:00 +26°C° 0 mm 3 mps 652 mmHg 26%
    15:00 +25°C° 0 mm 3 mps 652 mmHg 27%
    16:00 +25°C° 0 mm 2 mps 652 mmHg 29%
    17:00 +24°C° 0 mm 2 mps 652 mmHg 30%
    18:00 +20°C° 0 mm 2 mps 652 mmHg 38%
    19:00 +19°C° 0 mm 1 mps 651 mmHg 45%
    20:00 +15°C° 0 mm 1 mps 651 mmHg 52%
    21:00 +15°C° 0 mm 1 mps 651 mmHg 53%
    22:00 +14°C° 0 mm 1 mps 652 mmHg 55%
    23:00 +14°C° 0 mm 1 mps 652 mmHg 56%

    Tomorrow, 25 August, Sunday

    Time Temperature Precipitation Wind Pressure Humidity
    00:00 +14°C° 0 mm 1 mps 651 mmHg 55%
    01:00 +14°C° 0 mm 1 mps 651 mmHg 55%
    02:00 +14°C° 0 mm 1 mps 651 mmHg 55%
    03:00 +13°C° 0 mm 1 mps 651 mmHg 55%
    04:00 +13°C° 0 mm 1 mps 650 mmHg 55%
    05:00 +13°C° 0 mm 1 mps 650 mmHg 55%
    06:00 +14°C° 0 mm 1 mps 651 mmHg 51%
    07:00 +15°C° 0 mm 1 mps 651 mmHg 46%
    08:00 +18°C° 0 mm 1 mps 652 mmHg 42%
    09:00 +21°C° 0 mm 1 mps 653 mmHg 37%
    10:00 +24°C° 0 mm 1 mps 653 mmHg 32%
    11:00 +27°C° 0 mm 1 mps 654 mmHg 27%
    12:00 +28°C° 0 mm 2 mps 654 mmHg 26%
    13:00 +29°C° 0 mm 2 mps 653 mmHg 24%
    14:00 +29°C° 0 mm 3 mps 653 mmHg 23%
    15:00 +29°C° 0 mm 3 mps 653 mmHg 25%
    16:00 +28°C° 0 mm 3 mps 653 mmHg 27%
    17:00 +27°C° 0 mm 3 mps 653 mmHg 29%
    18:00 +25°C° 0 mm 2 mps 653 mmHg 38%
    19:00 +21°C° 0 mm 2 mps 653 mmHg 46%
    20:00 +19°C° 0 mm 1 mps 653 mmHg 55%
    21:00 +19°C° 0 mm 1 mps 653 mmHg 56%
    22:00 +18°C° 0 mm 1 mps 653 mmHg 58%
    23:00 +17°C° 0 mm 2 mps 654 mmHg 59%

    Day after tomorrow, 26 August, Monday

    Time Temperature Precipitation Wind Pressure Humidity
    00:00 +18°C° 0 mm 1 mps 653 mmHg 60%
    01:00 +16°C° 0 mm 1 mps 653 mmHg 60%
    02:00 +15°C° 0 mm 1 mps 653 mmHg 61%
    03:00 +15°C° 0 mm 1 mps 653 mmHg 62%
    04:00 +15°C° 0 mm 1 mps 653 mmHg 64%
    05:00 +14°C° 0 mm 1 mps 653 mmHg 65%
    06:00 +16°C° 0 mm 1 mps 654 mmHg 59%
    07:00 +18°C° 0 mm 1 mps 654 mmHg 52%
    08:00 +20°C° 0 mm 1 mps 655 mmHg 46%
    09:00 +23°C° 0 mm 1 mps 656 mmHg 41%
    10:00 +25°C° 0 mm 1 mps 656 mmHg 35%
    11:00 +28°C° 0 mm 2 mps 657 mmHg 30%
    12:00 +29°C° 0 mm 2 mps 656 mmHg 29%
    13:00 +29°C° 0 mm 2 mps 656 mmHg 27%
    14:00 +30°C° 0 mm 3 mps 655 mmHg 25%
    15:00 +30°C° 0 mm 3 mps 655 mmHg 26%
    16:00 +29°C° 0 mm 3 mps 654 mmHg 27%
    17:00 +28°C° 0 mm 4 mps 654 mmHg 29%
    18:00 +25°C° 0 mm 3 mps 654 mmHg 37%
    19:00 +23°C° 0 mm 2 mps 653 mmHg 45%
    20:00 +20°C° 0 mm 1 mps 653 mmHg 54%
    21:00 +19°C° 0 mm 1 mps 653 mmHg 56%
    22:00 +17°C° 0 mm 0 mps 653 mmHg 59%
    23:00 +16°C° 0 mm 0 mps 654 mmHg 61%

    27 August, Tuesday

    Time Temperature Precipitation Wind Pressure Humidity
    00:00 +16°C° 0 mm 0 mps 653 mmHg 62%
    01:00 +16°C° 0 mm 1 mps 653 mmHg 63%
    02:00 +16°C° 0 mm 1 mps 653 mmHg 63%
    03:00 +16°C° 0 mm 1 mps 653 mmHg 64%
    04:00 +15°C° 0 mm 1 mps 653 mmHg 65%
    05:00 +15°C° 0 mm 1 mps 653 mmHg 65%
    06:00 +18°C° 0 mm 1 mps 654 mmHg 60%
    07:00 +17°C° 0 mm 0 mps 655 mmHg 54%
    08:00 +19°C° 0 mm 0 mps 656 mmHg 48%
    09:00 +23°C° 0 mm 1 mps 657 mmHg 44%
    10:00 +26°C° 0 mm 1 mps 657 mmHg 39%
    11:00 +28°C° 0 mm 2 mps 658 mmHg 35%
    12:00 +29°C° 0 mm 2 mps 657 mmHg 33%
    13:00 +30°C° 0 mm 3 mps 657 mmHg 31%
    14:00 +30°C° 0 mm 3 mps 656 mmHg 29%
    15:00 +30°C° 0 mm 3 mps 656 mmHg 31%
    16:00 +29°C° 0 mm 3 mps 656 mmHg 32%
    17:00 +29°C° 0 mm 3 mps 655 mmHg 33%
    18:00 +26°C° 0 mm 2 mps 655 mmHg 42%
    19:00 +24°C° 0 mm 1 mps 655 mmHg 50%
    20:00 +21°C° 0 mm 1 mps 655 mmHg 58%
    21:00 +20°C° 0 mm 1 mps 654 mmHg 61%
    22:00 +18°C° 0 mm 0 mps 654 mmHg 64%
    23:00 +17°C° 0 mm 0 mps 654 mmHg 66%

    28 August, Wednesday

    Time Temperature Precipitation Wind Pressure Humidity
    00:00 +19°C° 0 mm 1 mps 654 mmHg 67%
    01:00 +19°C° 0 mm 1 mps 653 mmHg 67%
    02:00 +18°C° 0 mm 1 mps 653 mmHg 68%
    03:00 +18°C° 0 mm 1 mps 653 mmHg 68%
    04:00 +18°C° 0 mm 1 mps 653 mmHg 68%
    05:00 +16°C° 0 mm 1 mps 652 mmHg 68%
    06:00 +19°C° 0 mm 1 mps 653 mmHg 62%
    07:00 +19°C° 0 mm 0 mps 654 mmHg 56%
    08:00 +20°C° 0 mm 0 mps 655 mmHg 50%
    09:00 +24°C° 0 mm 1 mps 655 mmHg 45%
    10:00 +27°C° 0 mm 2 mps 655 mmHg 40%
    11:00 +29°C° 0 mm 2 mps 655 mmHg 34%
    12:00 +30°C° 0 mm 3 mps 655 mmHg 32%
    13:00 +31°C° 0 mm 3 mps 654 mmHg 30%
    14:00 +33°C° 0 mm 4 mps 654 mmHg 28%
    15:00 +33°C° 0 mm 4 mps 653 mmHg 29%
    16:00 +32°C° 0 mm 4 mps 653 mmHg 30%
    17:00 +32°C° 0 mm 4 mps 652 mmHg 32%
    18:00 +28°C° 0 mm 3 mps 652 mmHg 37%
    19:00 +26°C° 0 mm 2 mps 652 mmHg 43%
    20:00 +23°C° 0 mm 1 mps 652 mmHg 49%
    21:00 +23°C° 0 mm 1 mps 652 mmHg 49%
    22:00 +22°C° 0 mm 1 mps 652 mmHg 50%
    23:00 +21°C° 0 mm 1 mps 652 mmHg 50%

    29 August, Thursday

    Time Temperature Precipitation Wind Pressure Humidity
    00:00 +21°C° 0 mm 1 mps 651 mmHg 50%
    01:00 +20°C° 0 mm 1 mps 651 mmHg 50%
    02:00 +20°C° 0 mm 1 mps 651 mmHg 50%
    03:00 +20°C° 0 mm 1 mps 650 mmHg 50%
    04:00 +19°C° 0 mm 1 mps 650 mmHg 50%
    05:00 +19°C° 0 mm 1 mps 650 mmHg 50%
    06:00 +20°C° 0 mm 1 mps 651 mmHg 45%
    07:00 +22°C° 0 mm 1 mps 652 mmHg 40%
    08:00 +24°C° 0 mm 1 mps 652 mmHg 35%
    09:00 +27°C° 0 mm 1 mps 653 mmHg 30%
    10:00 +30°C° 0 mm 1 mps 654 mmHg 26%
    11:00 +34°C° 0 mm 2 mps 654 mmHg 21%
    12:00 +35°C° 0 mm 2 mps 654 mmHg 20%
    13:00 +35°C° 0 mm 2 mps 654 mmHg 19%
    14:00 +36°C° 0 mm 3 mps 653 mmHg 18%
    15:00 +36°C° 0 mm 3 mps 653 mmHg 18%
    16:00 +35°C° 0 mm 3 mps 653 mmHg 19%
    17:00 +34°C° 0 mm 3 mps 652 mmHg 19%
    18:00 +30°C° 0 mm 2 mps 652 mmHg 25%
    19:00 +27°C° 0 mm 2 mps 652 mmHg 30%
    20:00 +24°C° 0 mm 1 mps 652 mmHg 35%
    21:00 +24°C° 0 mm 1 mps 653 mmHg 36%
    22:00 +23°C° 0 mm 1 mps 653 mmHg 37%
    23:00 +23°C° 0 mm 2 mps 654 mmHg 38%
    Show more